{"data":{"norad_id":58783,"intl_designator":"2024-011U","name":"STARLINK-31047","alt_names":[],"object_type":"PAYLOAD","status":"ACTIVE","operator":null,"country":"US","launch_date":"2024-01-14","launch_site_code":"AFWTR","launch_vehicle":null,"mission":null,"orbit_class":"UNKNOWN","rcs_meters":null,"size_class":null,"mass_kg":null,"dimensions":null,"purposes":["comms"],"wikipedia_slug":null,"has_3d_model":false,"image_url":null,"decayed_at":null,"tle_current":{"epoch":"2026-09-20T04:08:44.359296Z","epoch_age_seconds":180884,"freshness":"STALE","line1":"1 58783U 24011U   26263.17273564 -.00000005  00000+0  11003-4 0  9997","line2":"2 58783  53.1582 170.8979 0001395  68.4226 291.6926 15.34393400150311","mean_motion":15.343934,"eccentricity":0.0001395,"inclination_deg":53.1582,"raan_deg":170.8979,"arg_perigee_deg":68.4226,"mean_anomaly_deg":291.6926,"bstar":1.1003e-5,"rev_number":15031,"period_min":93.848161755649,"perigee_km":461.76855691827,"apogee_km":463.67715681834,"semimajor_km":6840.8598568683,"source":"CELESTRAK","updated_at":"2026-09-21T09:00:33.977812Z"}}}